Change the Weather History Date:

Saturday, November 19, 2011

  Actual Average Record
Temperature  
Mean Temperature 50 °F 54 °F  
Max Temperature 56 °F 63 °F 79 °F (2005)
Min Temperature 44 °F 45 °F 37 °F (2000)
Degree Days  
Heating Degree Days 15    
Month to date heating degree days 220  
Since 1 July heating degree days 778  
Cooling Degree Days 0    
Month to date cooling degree days 0  
Year to date cooling degree days 33  
Moisture  
Dew Point 41 °F    
Average Humidity 72    
Maximum Humidity 92    
Minimum Humidity 51    
Precipitation  
Precipitation 0.09 in - 0.52 in (1950)
Month to date precipitation 0.88  
Year to date precipitation 15.95  
Since 1 July precipitation 3.16  
Sea Level Pressure  
Sea Level Pressure 29.96 in    
Wind  
Wind Speed 4 mph (East)    
Max Wind Speed 9 mph    
Max Gust Speed 14 mph    
Visibility 10 miles    
Events Rain    
T = Trace of Precipitation, MM = Missing Value Source: NWS Daily Summary

Daily Weather History Graph

Daily Weather History Graph

Search for Another Location

Airport or City:

Trip Planner

Search our weather history database for the weather conditions in past years. The results will help you decide how hot, cold, wet, or windy it might be!

Date:

Astronomy

Nov. 19, 2011 Rise Set
Actual Time 6:48 AM PST 4:56 PM PST
Civil Twilight 6:21 AM PST 5:23 PM PST
Nautical Twilight 5:49 AM PST 5:55 PM PST
Astronomical Twilight 5:19 AM PST 6:26 PM PST
Moon 12:25 AM PST (11/19) 1:07 PM PST (11/19)
Length of Visible Light 11h 02m
Length of Day
10h 07m
Last Quarter, 37% of the Moon is Illuminated
Nov 19
Last Quarter
Nov 24
New
Dec 2
First Quarter
Dec 10
Full
Dec 17
Last Quarter

Hourly Weather History & Observations

Time (PST) Temp. Windchill Dew Point Humidity Pressure Visibility Wind Dir Wind Speed Gust Speed Precip Events Conditions
12:42 AM 48.2 °F - 44.6 °F 87% 30.01 in 10.0 mi Calm Calm - N/A   Mostly Cloudy
12:52 AM 48.2 °F - 44.6 °F 87% 30.01 in 10.0 mi ESE 3.5 mph - N/A   Scattered Clouds
12:54 AM 48.0 °F - 44.1 °F 86% 30.05 in 10.0 mi Calm Calm - N/A   Partly Cloudy
1:54 AM 46.0 °F - 42.1 °F 86% 30.04 in 10.0 mi Calm Calm - N/A   Clear
2:54 AM 45.0 °F - 42.1 °F 90% 30.04 in 10.0 mi Calm Calm - N/A   Clear
3:54 AM 46.0 °F - 43.0 °F 89% 30.03 in 10.0 mi Calm Calm - N/A   Mostly Cloudy
4:02 AM 46.4 °F 45.2 °F 42.8 °F 87% 29.98 in 10.0 mi ESE 3.5 mph - N/A   Mostly Cloudy
4:18 AM 44.6 °F 43.1 °F 42.8 °F 93% 29.98 in 10.0 mi East 3.5 mph - N/A   Partly Cloudy
4:42 AM 44.6 °F - 42.8 °F 93% 29.98 in 10.0 mi Calm Calm - N/A   Mostly Cloudy
4:54 AM 46.0 °F - 43.0 °F 89% 30.02 in 10.0 mi Calm Calm - N/A   Mostly Cloudy
5:31 AM 44.6 °F 43.1 °F 42.8 °F 93% 29.98 in 10.0 mi East 3.5 mph - N/A   Mostly Cloudy
5:52 AM 44.6 °F 43.1 °F 41.0 °F 87% 29.98 in 10.0 mi East 3.5 mph - N/A   Scattered Clouds
5:54 AM 44.1 °F 40.8 °F 41.0 °F 89% 30.02 in 10.0 mi East 5.8 mph - N/A   Scattered Clouds
6:54 AM 44.1 °F 40.8 °F 41.0 °F 89% 30.02 in 10.0 mi ESE 5.8 mph - N/A   Partly Cloudy
7:54 AM 45.0 °F 43.5 °F 43.0 °F 93% 30.02 in 10.0 mi East 3.5 mph - 0.01 in   Clear
8:54 AM 52.0 °F - 44.1 °F 74% 30.03 in 10.0 mi Calm Calm - N/A   Partly Cloudy
9:54 AM 53.1 °F - 39.0 °F 59% 30.04 in 10.0 mi West 4.6 mph - N/A   Scattered Clouds
10:54 AM 54.0 °F - 37.9 °F 55% 30.03 in 10.0 mi Variable 3.5 mph - N/A   Scattered Clouds
11:54 AM 55.4 °F - 39.2 °F 54% 29.96 in 10.0 mi NW 4.6 mph - N/A   Scattered Clouds
12:54 PM 55.0 °F - 37.9 °F 53% 29.97 in 10.0 mi WNW 5.8 mph - N/A   Clear
1:54 PM 55.0 °F - 39.0 °F 55% 29.94 in 10.0 mi NW 5.8 mph - N/A   Clear
2:54 PM 55.9 °F - 39.0 °F 53% 29.92 in 10.0 mi NW 5.8 mph - N/A   Clear
4:54 PM 51.1 °F - 39.9 °F 66% 29.89 in 10.0 mi South 4.6 mph - N/A   Scattered Clouds
5:54 PM 51.1 °F - 39.9 °F 66% 29.86 in 10.0 mi East 3.5 mph - N/A   Overcast
6:54 PM 50.0 °F - 39.0 °F 66% 29.85 in 10.0 mi East 5.8 mph - N/A   Overcast
7:54 PM 50.0 °F - 39.0 °F 66% 29.84 in 10.0 mi East 5.8 mph - N/A   Mostly Cloudy
8:54 PM 53.1 °F - 37.9 °F 57% 29.83 in 10.0 mi East 3.5 mph - 0.00 in Rain Light Rain
9:54 PM 55.0 °F - 39.0 °F 55% 29.81 in 10.0 mi SE 4.6 mph - 0.00 in Rain Light Rain
10:54 PM 52.0 °F - 42.1 °F 69% 29.82 in 10.0 mi Calm Calm - 0.00 in Rain Light Rain
11:54 PM 50.0 °F - 45.0 °F 83% 29.81 in 7.0 mi ENE 3.5 mph - 0.07 in Rain Rain